• In Netherlands
  • List of Countries
  • For 7 days
  • Water Temperature
  • Satellite Maps
  • Weather Map
  • Weather Widgets
  • user-avatar
    Login

    Hourly Weather Mendoza

    Today, 21 February, Tuesday

    Time Temperature Precipitation Wind Pressure Humidity
    00:00 +29°C° 0.2 mm 1 mps 699 mmHg 53%
    01:00 +28°C° 0 mm 1 mps 699 mmHg 53%
    02:00 +28°C° 0.1 mm 1 mps 699 mmHg 53%
    03:00 +27°C° 0.1 mm 2 mps 699 mmHg 53%
    04:00 +27°C° 0.1 mm 2 mps 699 mmHg 53%
    05:00 +28°C° 0.1 mm 2 mps 699 mmHg 51%
    06:00 +29°C° 0.1 mm 2 mps 700 mmHg 48%
    07:00 +30°C° 0 mm 2 mps 700 mmHg 44%
    08:00 +31°C° 0 mm 2 mps 700 mmHg 40%
    09:00 +34°C° 0 mm 3 mps 701 mmHg 36%
    10:00 +35°C° 0 mm 3 mps 701 mmHg 32%
    11:00 +36°C° 0.1 mm 3 mps 700 mmHg 31%
    12:00 +37°C° 0.1 mm 3 mps 700 mmHg 30%
    13:00 +38°C° 0.1 mm 3 mps 700 mmHg 28%
    14:00 +38°C° 0.3 mm 3 mps 700 mmHg 29%
    15:00 +38°C° 0.3 mm 3 mps 699 mmHg 29%
    16:00 +38°C° 0.3 mm 3 mps 699 mmHg 29%
    17:00 +36°C° 0.4 mm 2 mps 699 mmHg 33%
    18:00 +35°C° 0.4 mm 2 mps 699 mmHg 36%
    19:00 +32°C° 0.4 mm 2 mps 699 mmHg 39%
    20:00 +32°C° 0.2 mm 2 mps 699 mmHg 41%
    21:00 +31°C° 0.2 mm 2 mps 700 mmHg 43%
    22:00 +30°C° 0.2 mm 1 mps 700 mmHg 45%
    23:00 +30°C° 0 mm 2 mps 700 mmHg 46%

    Tomorrow, 22 February, Wednesday

    Time Temperature Precipitation Wind Pressure Humidity
    00:00 +29°C° 0 mm 2 mps 699 mmHg 47%
    01:00 +29°C° 0 mm 2 mps 699 mmHg 48%
    02:00 +28°C° 0 mm 2 mps 699 mmHg 48%
    03:00 +28°C° 0 mm 2 mps 699 mmHg 49%
    04:00 +27°C° 0 mm 2 mps 699 mmHg 49%
    05:00 +28°C° 0 mm 2 mps 699 mmHg 45%
    06:00 +29°C° 0 mm 2 mps 699 mmHg 41%
    07:00 +30°C° 0 mm 2 mps 700 mmHg 38%
    08:00 +31°C° 0 mm 2 mps 699 mmHg 36%
    09:00 +34°C° 0 mm 2 mps 699 mmHg 34%
    10:00 +35°C° 0 mm 2 mps 699 mmHg 32%
    11:00 +36°C° 0 mm 2 mps 699 mmHg 30%
    12:00 +37°C° 0 mm 3 mps 698 mmHg 28%
    13:00 +38°C° 0 mm 4 mps 698 mmHg 26%
    14:00 +38°C° 0.1 mm 4 mps 697 mmHg 26%
    15:00 +40°C° 0.1 mm 4 mps 697 mmHg 25%
    16:00 +40°C° 0.1 mm 4 mps 696 mmHg 25%
    17:00 +37°C° 0.1 mm 3 mps 697 mmHg 28%
    18:00 +35°C° 0.1 mm 3 mps 697 mmHg 31%
    19:00 +34°C° 0.1 mm 2 mps 697 mmHg 34%
    20:00 +32°C° 0 mm 2 mps 697 mmHg 36%
    21:00 +31°C° 0 mm 2 mps 697 mmHg 38%
    22:00 +31°C° 0 mm 1 mps 698 mmHg 40%
    23:00 +30°C° 0 mm 1 mps 697 mmHg 40%

    Day after tomorrow, 23 February, Thursday

    Time Temperature Precipitation Wind Pressure Humidity
    00:00 +30°C° 0 mm 1 mps 697 mmHg 41%
    01:00 +29°C° 0 mm 2 mps 697 mmHg 42%
    02:00 +29°C° 0 mm 2 mps 697 mmHg 43%
    03:00 +28°C° 0 mm 2 mps 697 mmHg 43%
    04:00 +28°C° 0 mm 2 mps 697 mmHg 43%
    05:00 +29°C° 0 mm 2 mps 697 mmHg 40%
    06:00 +30°C° 0 mm 2 mps 698 mmHg 38%
    07:00 +31°C° 0 mm 2 mps 699 mmHg 35%
    08:00 +32°C° 0 mm 2 mps 699 mmHg 33%
    09:00 +35°C° 0 mm 2 mps 699 mmHg 31%
    10:00 +36°C° 0 mm 2 mps 699 mmHg 29%
    11:00 +37°C° 0 mm 3 mps 698 mmHg 28%
    12:00 +38°C° 0 mm 3 mps 698 mmHg 27%
    13:00 +39°C° 0 mm 3 mps 697 mmHg 26%
    14:00 +39°C° 0.1 mm 3 mps 697 mmHg 26%
    15:00 +39°C° 0.1 mm 3 mps 697 mmHg 26%
    16:00 +39°C° 0.1 mm 3 mps 696 mmHg 26%
    17:00 +37°C° 0.1 mm 3 mps 696 mmHg 29%
    18:00 +36°C° 0.1 mm 2 mps 696 mmHg 33%
    19:00 +34°C° 0.1 mm 2 mps 697 mmHg 36%
    20:00 +32°C° 0.1 mm 2 mps 697 mmHg 38%
    21:00 +32°C° 0.1 mm 2 mps 697 mmHg 40%
    22:00 +31°C° 0.1 mm 2 mps 698 mmHg 41%
    23:00 +31°C° 0.2 mm 2 mps 697 mmHg 42%

    24 February, Friday

    Time Temperature Precipitation Wind Pressure Humidity
    00:00 +30°C° 0.2 mm 2 mps 697 mmHg 42%
    01:00 +30°C° 0.2 mm 2 mps 697 mmHg 43%
    02:00 +29°C° 0.1 mm 2 mps 696 mmHg 44%
    03:00 +29°C° 0.1 mm 2 mps 696 mmHg 45%
    04:00 +28°C° 0.1 mm 1 mps 696 mmHg 46%
    05:00 +29°C° 0.1 mm 1 mps 697 mmHg 43%
    06:00 +30°C° 0.1 mm 1 mps 697 mmHg 40%
    07:00 +31°C° 0.1 mm 1 mps 698 mmHg 37%
    08:00 +32°C° 0.1 mm 1 mps 698 mmHg 35%
    09:00 +35°C° 0.1 mm 2 mps 698 mmHg 32%
    10:00 +36°C° 0.1 mm 3 mps 698 mmHg 30%
    11:00 +37°C° 0.1 mm 4 mps 698 mmHg 28%
    12:00 +38°C° 0.1 mm 4 mps 697 mmHg 27%
    13:00 +40°C° 0.1 mm 5 mps 697 mmHg 26%
    14:00 +40°C° 0.2 mm 5 mps 697 mmHg 26%
    15:00 +40°C° 0.2 mm 5 mps 696 mmHg 25%
    16:00 +40°C° 0.2 mm 4 mps 696 mmHg 25%
    17:00 +37°C° 0.3 mm 4 mps 696 mmHg 29%
    18:00 +36°C° 0.3 mm 3 mps 696 mmHg 33%
    19:00 +34°C° 0.3 mm 2 mps 696 mmHg 36%
    20:00 +32°C° 0.2 mm 2 mps 697 mmHg 37%
    21:00 +32°C° 0.2 mm 2 mps 697 mmHg 38%
    22:00 +31°C° 0.2 mm 2 mps 698 mmHg 39%
    23:00 +31°C° 0 mm 2 mps 697 mmHg 41%

    25 February, Saturday

    Time Temperature Precipitation Wind Pressure Humidity
    00:00 +30°C° 0 mm 2 mps 697 mmHg 42%
    01:00 +29°C° 0 mm 2 mps 696 mmHg 43%
    02:00 +28°C° 0 mm 2 mps 696 mmHg 44%
    03:00 +28°C° 0 mm 1 mps 696 mmHg 45%
    04:00 +27°C° 0 mm 1 mps 696 mmHg 46%
    05:00 +28°C° 0.1 mm 2 mps 697 mmHg 44%
    06:00 +29°C° 0.1 mm 2 mps 698 mmHg 42%
    07:00 +30°C° 0.1 mm 2 mps 698 mmHg 40%
    08:00 +31°C° 0.3 mm 2 mps 698 mmHg 38%
    09:00 +32°C° 0.3 mm 2 mps 699 mmHg 37%
    10:00 +34°C° 0.3 mm 2 mps 699 mmHg 36%
    11:00 +35°C° 0.2 mm 2 mps 698 mmHg 34%
    12:00 +36°C° 0.2 mm 3 mps 698 mmHg 33%
    13:00 +36°C° 0.2 mm 3 mps 697 mmHg 32%
    14:00 +36°C° 0.2 mm 3 mps 697 mmHg 33%
    15:00 +36°C° 0.2 mm 4 mps 697 mmHg 33%
    16:00 +37°C° 0.2 mm 5 mps 697 mmHg 34%
    17:00 +35°C° 1.1 mm 4 mps 697 mmHg 38%
    18:00 +34°C° 1.1 mm 4 mps 697 mmHg 43%
    19:00 +33°C° 1.1 mm 3 mps 697 mmHg 48%
    20:00 +31°C° 1.2 mm 3 mps 697 mmHg 51%
    21:00 +30°C° 1.2 mm 3 mps 697 mmHg 55%
    22:00 +29°C° 1.2 mm 3 mps 697 mmHg 59%
    23:00 +28°C° 0.1 mm 3 mps 697 mmHg 61%

    26 February, Sunday

    Time Temperature Precipitation Wind Pressure Humidity
    00:00 +28°C° 0.1 mm 3 mps 697 mmHg 63%
    01:00 +27°C° 0.1 mm 2 mps 696 mmHg 65%
    02:00 +27°C° 0.4 mm 2 mps 696 mmHg 66%
    03:00 +26°C° 0.4 mm 2 mps 696 mmHg 67%
    04:00 +26°C° 0.4 mm 2 mps 696 mmHg 67%
    05:00 +27°C° 0.4 mm 2 mps 696 mmHg 65%
    06:00 +27°C° 0.4 mm 1 mps 696 mmHg 62%
    07:00 +28°C° 0.4 mm 1 mps 697 mmHg 59%
    08:00 +29°C° 0.1 mm 2 mps 697 mmHg 54%
    09:00 +30°C° 0.1 mm 2 mps 697 mmHg 50%
    10:00 +32°C° 0.1 mm 2 mps 697 mmHg 46%
    11:00 +33°C° 0.6 mm 3 mps 697 mmHg 44%
    12:00 +34°C° 0.6 mm 3 mps 696 mmHg 42%
    13:00 +35°C° 0.6 mm 3 mps 696 mmHg 40%
    14:00 +35°C° 1.2 mm 3 mps 696 mmHg 40%
    15:00 +35°C° 1.2 mm 2 mps 695 mmHg 40%
    16:00 +35°C° 1.2 mm 2 mps 695 mmHg 40%
    17:00 +34°C° 2.2 mm 3 mps 695 mmHg 46%
    18:00 +32°C° 2.2 mm 5 mps 696 mmHg 52%
    19:00 +29°C° 2.2 mm 6 mps 696 mmHg 58%
    20:00 +28°C° 1.4 mm 5 mps 696 mmHg 62%
    21:00 +28°C° 1.4 mm 5 mps 696 mmHg 65%
    22:00 +27°C° 1.4 mm 5 mps 696 mmHg 68%
    23:00 +26°C° 0.2 mm 4 mps 696 mmHg 68%
    Show more